Regional Weather Roundup
Issued by NWS

Home | Current Version | Previous Version | Text Only | Print | Product List | Glossary On
Versions: 1 2 3 4 5 6 7 8 9 10 11 12 13 14 15 16 17 18 19 20 21 22 23 24 25 26 27 28 29 30 31 32 33 34 35 36 37 38 39 40 41 42 43 44 45 46 47 48 49 50
000
ASCA42 TJSJ 140610
RWRPR
PUERTO RICO/U.S. VIRGIN ISLANDS HOURLY WEATHER ROUNDUP
NATIONAL WEATHER SERVICE SAN JUAN PR
200 AM AST SUN FEB 14 2016

PRZ001-004-140700-
PUERTO RICO

CITY           SKY/WX    TMP DP  RH WIND       PRES   REMARKS
SAN JUAN LMM   PTCLDY    75  70  83 CALM      30.02F
PONCE          PTCLDY    72  64  78 CALM      30.00S
AGUADILLA      CLEAR     70  64  83 E3        30.03F
CEIBA          PTCLDY    72  70  94 NW3       30.02F
$$

PRZ006-007-140700-
U.S. VIRGIN ISLANDS

CITY           SKY/WX    TMP DP  RH WIND       PRES   REMARKS
CHARLOTTE AMA  CLOUDY    75  64  69 E13       29.99F
CHRISTIANSTED    N/A     75  66  73 CALM      30.00F
$$

HOURLY WEATHER ROUNDUP FOR THE NEWS MEDIA

CITY           SKY/WX    TMP DP  RH WIND       PRES   REMARKS
ORLANDO        PTCLDY    51  39  63 N9        30.29S
NEW YORK       PTCLDY     7 -17  32 NW23G35   30.34R WCI -14
NEWARK         PTCLDY     6 -15  37 NW23G29   30.34R WCI -15
CHICAGO        MOCLDY    11  -3  53 NE6       30.45F WCI   1
HARTFORD       CLEAR     -2 -20  42 W12G24    30.16R WCI -20
BOSTON         PTCLDY    -6 -23  43 W24G35    30.17R WCI -32
DALLAS         PTCLDY    57  45  64 S20       30.07F
PHILADELPHIA   PTCLDY    13  -8  39 NW13G25   30.39R WCI  -2
LOS ANGELES    PTCLDY    56  53  90 N3        30.07R FOG
WASHINGTON DC  FAIR      12  -4  48 NW9       30.45R WCI   0


USA.gov is the U.S. government's official web portal to all federal, state and local government web resources and services.